OAW420 LSZH-EGBB

Flight info

Callsign OAW420
Flight time 1h 28m
Altitude 34000
Route VEBIT4N VEBIT T10 TORPA DCT REKLA DCT RLP DCT ROTSI DCT KOTUN DCT NINAL DCT ABNUR DCT DIMAL DCT ALESO T420 HEMEL HEMEL1B
Aircraft E190/M-SDE3GILORVW/S

Departure

Time 2026-05-05 20:05
Airport Zürich Airport (LSZH)

Arrival

Time 2026-05-05 21:34
Airport Birmingham Airport (EGBB)
Time Latitude Longitude Altitude Speed Heading
2026-05-05 19:45 47.46168 8.55550 1368 ft 0 kts 186°
2026-05-05 19:56 47.46169 8.55550 1396 ft 2 kts 186°
2026-05-05 19:57 47.46194 8.55554 1398 ft 4 kts 186°
2026-05-05 19:57 47.46207 8.55556 1401 ft 4 kts 182°
2026-05-05 19:57 47.46240 8.55546 1401 ft 4 kts 139°
2026-05-05 19:57 47.46255 8.55516 1400 ft 4 kts 98°
2026-05-05 19:58 47.46257 8.55483 1402 ft 1 kts 96°
2026-05-05 19:58 47.46257 8.55481 1402 ft 0 kts 96°
2026-05-05 20:00 47.46257 8.55487 1396 ft 2 kts 96°
2026-05-05 20:00 47.46253 8.55541 1396 ft 8 kts 96°
2026-05-05 20:00 47.46246 8.55651 1396 ft 13 kts 96°
2026-05-05 20:01 47.46237 8.55768 1404 ft 9 kts 96°
2026-05-05 20:01 47.46230 8.55868 1396 ft 11 kts 96°
2026-05-05 20:01 47.46217 8.55979 1402 ft 11 kts 115°
2026-05-05 20:01 47.46162 8.56061 1401 ft 12 kts 136°
2026-05-05 20:02 47.46097 8.56150 1397 ft 12 kts 135°
2026-05-05 20:02 47.46045 8.56233 1397 ft 9 kts 117°
2026-05-05 20:02 47.46050 8.56294 1406 ft 2 kts 64°
2026-05-05 20:02 47.46058 8.56307 1401 ft 4 kts 52°
2026-05-05 20:03 47.46092 8.56365 1402 ft 11 kts 46°
2026-05-05 20:03 47.46174 8.56388 1406 ft 17 kts 327°
2026-05-05 20:03 47.46230 8.56307 1407 ft 1 kts 317°
2026-05-05 20:03 47.46237 8.56298 1408 ft 0 kts 318°
2026-05-05 20:04 47.46238 8.56298 1404 ft 1 kts 318°
2026-05-05 20:04 47.46374 8.56112 1402 ft 58 kts 317°
2026-05-05 20:04 47.46824 8.55497 1404 ft 116 kts 317°
2026-05-05 20:05 47.47535 8.54512 1422 ft 161 kts 314°
2026-05-05 20:05 47.48441 8.53301 1710 ft 187 kts 317°
2026-05-05 20:05 47.49489 8.51921 2015 ft 215 kts 316°
2026-05-05 20:05 47.50599 8.50515 2909 ft 208 kts 317°
2026-05-05 20:06 47.51753 8.49166 3431 ft 219 kts 322°
2026-05-05 20:06 47.53088 8.48031 4110 ft 222 kts 327°
2026-05-05 20:06 47.54247 8.46619 4744 ft 214 kts 298°
2026-05-05 20:06 47.54596 8.44640 4883 ft 198 kts 259°
2026-05-05 20:07 47.54168 8.42663 4968 ft 207 kts 247°
2026-05-05 20:07 47.53592 8.40722 5041 ft 207 kts 245°
2026-05-05 20:07 47.52886 8.38860 5530 ft 207 kts 229°
2026-05-05 20:07 47.51626 8.37860 6212 ft 213 kts 198°
2026-05-05 20:08 47.50155 8.37448 6796 ft 216 kts 194°
2026-05-05 20:08 47.48667 8.37112 7322 ft 217 kts 193°
2026-05-05 20:08 47.47161 8.36763 7830 ft 220 kts 192°
2026-05-05 20:08 47.45639 8.36415 8352 ft 221 kts 192°
2026-05-05 20:09 47.44145 8.35887 8832 ft 221 kts 208°
2026-05-05 20:09 47.43084 8.34289 9318 ft 223 kts 240°
2026-05-05 20:09 47.42461 8.32233 9987 ft 217 kts 246°
2026-05-05 20:09 47.41932 8.30163 10466 ft 219 kts 248°
2026-05-05 20:10 47.41488 8.27990 10903 ft 222 kts 252°
2026-05-05 20:10 47.41095 8.25758 11182 ft 232 kts 252°
2026-05-05 20:10 47.40693 8.23373 11478 ft 243 kts 253°
2026-05-05 20:10 47.40290 8.20938 12127 ft 246 kts 253°
2026-05-05 20:11 47.39883 8.18491 12774 ft 249 kts 253°
2026-05-05 20:11 47.39467 8.15987 13385 ft 255 kts 253°
2026-05-05 20:11 47.39179 8.14268 13596 ft 264 kts 253°
2026-05-05 20:11 47.38719 8.11553 13816 ft 283 kts 253°
2026-05-05 20:12 47.38218 8.08637 13988 ft 302 kts 253°
2026-05-05 20:12 47.37682 8.05554 14209 ft 317 kts 253°
2026-05-05 20:12 47.37125 8.02368 14693 ft 322 kts 253°
2026-05-05 20:12 47.36560 7.99150 15236 ft 326 kts 253°
2026-05-05 20:13 47.35987 7.95893 15772 ft 330 kts 253°
2026-05-05 20:13 47.35406 7.92601 16303 ft 333 kts 253°
2026-05-05 20:13 47.34817 7.89278 16836 ft 337 kts 253°
2026-05-05 20:13 47.34219 7.85920 17380 ft 340 kts 253°
2026-05-05 20:14 47.33613 7.82530 17937 ft 343 kts 253°
2026-05-05 20:14 47.33002 7.79109 18456 ft 347 kts 253°
2026-05-05 20:14 47.32387 7.75657 18993 ft 349 kts 253°
2026-05-05 20:14 47.31773 7.72178 19492 ft 352 kts 253°
2026-05-05 20:15 47.31157 7.68670 19999 ft 356 kts 253°
2026-05-05 20:15 47.30770 7.65094 20438 ft 364 kts 268°
2026-05-05 20:15 47.31076 7.61366 20917 ft 370 kts 276°
2026-05-05 20:15 47.31654 7.57633 21358 ft 376 kts 283°
2026-05-05 20:16 47.32425 7.53937 21775 ft 379 kts 283°
2026-05-05 20:16 47.33222 7.50206 22160 ft 383 kts 284°
2026-05-05 20:16 47.34035 7.46458 22582 ft 386 kts 283°
2026-05-05 20:16 47.34853 7.42675 22954 ft 388 kts 283°
2026-05-05 20:17 47.35676 7.38874 23367 ft 390 kts 283°
2026-05-05 20:17 47.36501 7.35051 23819 ft 391 kts 283°
2026-05-05 20:17 47.37328 7.31211 24225 ft 393 kts 283°
2026-05-05 20:17 47.38156 7.27364 24634 ft 395 kts 283°
2026-05-05 20:18 47.38984 7.23503 24997 ft 397 kts 283°
2026-05-05 20:18 47.39827 7.19607 25387 ft 399 kts 284°
2026-05-05 20:18 47.40642 7.15672 25717 ft 399 kts 279°
2026-05-05 20:18 47.41261 7.11675 26043 ft 400 kts 279°
2026-05-05 20:19 47.41874 7.07661 26369 ft 402 kts 278°
2026-05-05 20:19 47.42469 7.03609 26664 ft 404 kts 278°
2026-05-05 20:19 47.43062 6.99552 26974 ft 406 kts 278°
2026-05-05 20:19 47.43657 6.95467 27275 ft 407 kts 278°
2026-05-05 20:20 47.44248 6.91416 27569 ft 409 kts 278°
2026-05-05 20:20 47.44846 6.87307 27874 ft 410 kts 278°
2026-05-05 20:20 47.45470 6.83180 28161 ft 414 kts 281°
2026-05-05 20:20 47.46493 6.79155 28426 ft 422 kts 291°
2026-05-05 20:21 47.47937 6.75357 28707 ft 426 kts 297°
2026-05-05 20:21 47.49513 6.71626 28987 ft 428 kts 297°
2026-05-05 20:21 47.50944 6.67785 29302 ft 424 kts 289°
2026-05-05 20:21 47.51909 6.63698 29568 ft 419 kts 279°
2026-05-05 20:22 47.52479 6.59490 29920 ft 415 kts 275°
2026-05-05 20:22 47.52924 6.55273 30221 ft 414 kts 274°
2026-05-05 20:22 47.53325 6.51060 30470 ft 414 kts 273°
2026-05-05 20:22 47.53723 6.46847 30729 ft 414 kts 276°
2026-05-05 20:23 47.54481 6.42706 30983 ft 420 kts 286°
2026-05-05 20:23 47.55754 6.38791 31239 ft 425 kts 297°
2026-05-05 20:23 47.57440 6.35339 31486 ft 430 kts 307°
2026-05-05 20:23 47.59479 6.32090 31776 ft 431 kts 310°
2026-05-05 20:24 47.61577 6.28975 32050 ft 431 kts 311°
2026-05-05 20:24 47.63731 6.25849 32191 ft 434 kts 312°
2026-05-05 20:24 47.65890 6.22717 32399 ft 435 kts 312°
2026-05-05 20:24 47.68054 6.19586 32652 ft 434 kts 312°
2026-05-05 20:25 47.70208 6.16445 32905 ft 434 kts 312°
2026-05-05 20:25 47.72357 6.13293 33162 ft 433 kts 312°
2026-05-05 20:25 47.74496 6.10145 33416 ft 432 kts 312°
2026-05-05 20:25 47.76627 6.06997 33667 ft 431 kts 312°
2026-05-05 20:26 47.78712 6.03920 33761 ft 413 kts 312°
2026-05-05 20:26 47.82841 5.97812 33860 ft 425 kts 312°
2026-05-05 20:27 47.87072 5.91515 33883 ft 430 kts 312°
2026-05-05 20:27 47.91268 5.85178 33854 ft 429 kts 312°
2026-05-05 20:28 47.95419 5.78875 33862 ft 429 kts 312°
2026-05-05 20:28 47.99605 5.72508 33854 ft 429 kts 312°
2026-05-05 20:29 48.03784 5.66142 33855 ft 429 kts 312°
2026-05-05 20:29 48.07950 5.59782 33852 ft 429 kts 311°
2026-05-05 20:30 48.12132 5.53331 33866 ft 431 kts 312°
2026-05-05 20:30 48.16263 5.46879 33834 ft 431 kts 311°
2026-05-05 20:31 48.20363 5.40295 33855 ft 432 kts 311°
2026-05-05 20:31 48.24425 5.33664 33841 ft 431 kts 310°
2026-05-05 20:32 48.28482 5.27012 33841 ft 432 kts 310°
2026-05-05 20:32 48.32468 5.20456 33841 ft 432 kts 310°
2026-05-05 20:33 48.36591 5.13679 33843 ft 434 kts 311°
2026-05-05 20:33 48.40643 5.06962 33829 ft 433 kts 310°
2026-05-05 20:34 48.44682 5.00212 33829 ft 433 kts 310°
2026-05-05 20:34 48.48704 4.93474 33825 ft 433 kts 310°
2026-05-05 20:35 48.52732 4.86716 33829 ft 433 kts 310°
2026-05-05 20:35 48.56658 4.79818 33827 ft 434 kts 308°
2026-05-05 20:36 48.60407 4.72664 33832 ft 434 kts 307°
2026-05-05 20:36 48.64055 4.65485 33813 ft 433 kts 306°
2026-05-05 20:37 48.67728 4.58179 33821 ft 433 kts 306°
2026-05-05 20:37 48.71392 4.50919 33823 ft 433 kts 306°
2026-05-05 20:38 48.75014 4.43698 33825 ft 434 kts 306°
2026-05-05 20:38 48.78657 4.36414 33837 ft 434 kts 306°
2026-05-05 20:39 48.82287 4.29102 33825 ft 433 kts 306°
2026-05-05 20:39 48.85888 4.21810 33831 ft 433 kts 306°
2026-05-05 20:40 48.89491 4.14471 33829 ft 433 kts 306°
2026-05-05 20:40 48.93093 4.07113 33819 ft 433 kts 306°
2026-05-05 20:41 48.96663 3.99805 33819 ft 433 kts 306°
2026-05-05 20:41 49.00257 3.92440 33802 ft 433 kts 306°
2026-05-05 20:42 49.03855 3.85050 33806 ft 435 kts 306°
2026-05-05 20:42 49.07459 3.77611 33794 ft 435 kts 306°
2026-05-05 20:43 49.11039 3.70170 33811 ft 435 kts 306°
2026-05-05 20:43 49.14613 3.62717 33807 ft 435 kts 306°
2026-05-05 20:44 49.18184 3.55255 33809 ft 435 kts 306°
2026-05-05 20:44 49.21749 3.47739 33815 ft 437 kts 306°
2026-05-05 20:45 49.27057 3.36481 33821 ft 437 kts 306°
2026-05-05 20:45 49.30626 3.28938 33821 ft 437 kts 306°
2026-05-05 20:46 49.34190 3.21406 33825 ft 437 kts 306°
2026-05-05 20:46 49.37761 3.13846 33826 ft 437 kts 306°
2026-05-05 20:47 49.41325 3.06276 33828 ft 437 kts 306°
2026-05-05 20:47 49.44876 2.98705 33835 ft 437 kts 306°
2026-05-05 20:48 49.48435 2.91101 33836 ft 437 kts 306°
2026-05-05 20:48 49.51832 2.83853 33846 ft 437 kts 306°
2026-05-05 20:49 49.55396 2.76257 33844 ft 437 kts 306°
2026-05-05 20:49 49.58937 2.68704 33858 ft 437 kts 306°
2026-05-05 20:50 49.61887 2.62374 33846 ft 437 kts 306°
2026-05-05 20:50 49.65996 2.53463 33858 ft 437 kts 306°
2026-05-05 20:51 49.69706 2.46203 33866 ft 445 kts 312°
2026-05-05 20:51 49.73948 2.39368 33864 ft 454 kts 316°
2026-05-05 20:52 49.78491 2.32638 33881 ft 462 kts 317°
2026-05-05 20:52 49.83329 2.26275 33869 ft 461 kts 322°
2026-05-05 20:53 49.88371 2.20245 33879 ft 458 kts 323°
2026-05-05 20:53 49.93432 2.14236 33876 ft 458 kts 323°
2026-05-05 20:54 49.98492 2.08214 33895 ft 459 kts 322°
2026-05-05 20:54 50.03550 2.02164 33879 ft 458 kts 323°
2026-05-05 20:55 50.08604 1.96118 33900 ft 458 kts 322°
2026-05-05 20:55 50.13630 1.90084 33894 ft 458 kts 322°
2026-05-05 20:56 50.18511 1.83707 33899 ft 459 kts 316°
2026-05-05 20:56 50.23113 1.76784 33899 ft 459 kts 315°
2026-05-05 20:57 50.27679 1.69818 33914 ft 459 kts 315°
2026-05-05 20:57 50.32246 1.62832 33907 ft 459 kts 315°
2026-05-05 20:58 50.36034 1.57021 33914 ft 459 kts 315°
2026-05-05 20:58 50.40596 1.50005 33905 ft 459 kts 315°
2026-05-05 20:59 50.45160 1.42984 33921 ft 461 kts 315°
2026-05-05 20:59 50.49682 1.35877 33909 ft 459 kts 312°
2026-05-05 21:00 50.54053 1.28512 33924 ft 461 kts 312°
2026-05-05 21:00 50.58437 1.21195 33924 ft 461 kts 314°
2026-05-05 21:01 50.62961 1.14021 33928 ft 462 kts 314°
2026-05-05 21:01 50.67472 1.06900 33949 ft 458 kts 313°
2026-05-05 21:02 50.71966 0.99761 33945 ft 459 kts 314°
2026-05-05 21:02 50.76435 0.92655 33951 ft 457 kts 313°
2026-05-05 21:03 50.80879 0.85564 33937 ft 454 kts 313°
2026-05-05 21:03 50.85320 0.78458 33947 ft 454 kts 313°
2026-05-05 21:04 50.89759 0.71355 33964 ft 452 kts 313°
2026-05-05 21:04 50.94171 0.64231 34002 ft 452 kts 313°
2026-05-05 21:05 50.98575 0.57122 34051 ft 451 kts 313°
2026-05-05 21:05 51.02911 0.50107 34077 ft 437 kts 313°
2026-05-05 21:06 51.04984 0.46682 34097 ft 424 kts 312°
2026-05-05 21:06 51.07078 0.43405 34116 ft 423 kts 315°
2026-05-05 21:06 51.11339 0.36884 34137 ft 426 kts 315°
2026-05-05 21:07 51.15583 0.30403 34128 ft 425 kts 315°
2026-05-05 21:07 51.19831 0.23899 34113 ft 425 kts 315°
2026-05-05 21:08 51.24059 0.17406 34081 ft 425 kts 315°
2026-05-05 21:08 51.28228 0.10987 33937 ft 427 kts 314°
2026-05-05 21:09 51.30368 0.07701 33435 ft 426 kts 316°
2026-05-05 21:09 51.32568 0.04739 32903 ft 424 kts 320°
2026-05-05 21:09 51.34844 0.01979 32366 ft 423 kts 324°
2026-05-05 21:09 51.37350 -0.00494 31881 ft 424 kts 327°
2026-05-05 21:10 51.39590 -0.02669 31455 ft 425 kts 327°
2026-05-05 21:10 51.41894 -0.04868 31028 ft 425 kts 327°
2026-05-05 21:10 51.43350 -0.06251 30766 ft 426 kts 327°
2026-05-05 21:10 51.45848 -0.08623 30303 ft 426 kts 327°
2026-05-05 21:11 51.48408 -0.11055 29817 ft 427 kts 327°
2026-05-05 21:11 51.50740 -0.13275 29328 ft 426 kts 327°
2026-05-05 21:11 51.53328 -0.15752 28798 ft 426 kts 327°
2026-05-05 21:11 51.55872 -0.18178 28284 ft 425 kts 327°
2026-05-05 21:12 51.58350 -0.20547 27871 ft 422 kts 327°
2026-05-05 21:12 51.60556 -0.22662 27344 ft 413 kts 327°
2026-05-05 21:12 51.62350 -0.24390 26906 ft 411 kts 327°
2026-05-05 21:12 51.64801 -0.26736 26318 ft 408 kts 327°
2026-05-05 21:13 51.67223 -0.29060 25743 ft 404 kts 327°
2026-05-05 21:13 51.69620 -0.31372 25114 ft 398 kts 327°
2026-05-05 21:13 51.71881 -0.33550 24490 ft 392 kts 327°
2026-05-05 21:13 51.74210 -0.35804 24057 ft 388 kts 327°
2026-05-05 21:14 51.76446 -0.37958 23669 ft 359 kts 327°
2026-05-05 21:14 51.77939 -0.39415 23275 ft 350 kts 325°
2026-05-05 21:14 51.79781 -0.42150 22798 ft 348 kts 303°
2026-05-05 21:14 51.80718 -0.45597 22385 ft 347 kts 280°
2026-05-05 21:15 51.80700 -0.49478 22039 ft 349 kts 257°
2026-05-05 21:15 51.79695 -0.53024 21786 ft 350 kts 234°
2026-05-05 21:15 51.77879 -0.55621 21515 ft 352 kts 210°
2026-05-05 21:15 51.75603 -0.56792 21260 ft 354 kts 187°
2026-05-05 21:16 51.73152 -0.56382 21036 ft 357 kts 163°
2026-05-05 21:16 51.70863 -0.54841 20786 ft 357 kts 155°
2026-05-05 21:16 51.68673 -0.52959 20467 ft 356 kts 150°
2026-05-05 21:16 51.66830 -0.50348 20195 ft 356 kts 127°
2026-05-05 21:17 51.65782 -0.46745 19952 ft 356 kts 102°
2026-05-05 21:17 51.65718 -0.42831 19720 ft 354 kts 78°
2026-05-05 21:17 51.66622 -0.39237 19580 ft 352 kts 54°
2026-05-05 21:17 51.68359 -0.36519 19356 ft 348 kts 30°
2026-05-05 21:18 51.70605 -0.35209 19130 ft 344 kts
2026-05-05 21:18 51.72956 -0.35514 18914 ft 340 kts 342°
2026-05-05 21:18 51.75149 -0.36905 18706 ft 339 kts 333°
2026-05-05 21:18 51.77208 -0.38735 18471 ft 338 kts 329°
2026-05-05 21:19 51.79192 -0.40621 18187 ft 337 kts 328°
2026-05-05 21:19 51.81199 -0.42561 17914 ft 335 kts 327°
2026-05-05 21:19 51.83193 -0.44481 17645 ft 332 kts 327°
2026-05-05 21:19 51.85139 -0.46502 17364 ft 331 kts 319°
2026-05-05 21:20 51.86804 -0.49017 17104 ft 326 kts 313°
2026-05-05 21:20 51.88378 -0.51684 16830 ft 327 kts 311°
2026-05-05 21:20 51.89899 -0.54380 16560 ft 324 kts 310°
2026-05-05 21:20 51.91404 -0.57076 16298 ft 322 kts 310°
2026-05-05 21:21 51.92897 -0.59782 16034 ft 322 kts 310°
2026-05-05 21:21 51.94357 -0.62437 15778 ft 317 kts 310°
2026-05-05 21:21 51.95806 -0.65076 15514 ft 318 kts 310°
2026-05-05 21:21 51.97267 -0.67757 15256 ft 317 kts 310°
2026-05-05 21:22 51.98714 -0.70417 15002 ft 313 kts 310°
2026-05-05 21:22 52.00158 -0.73057 14749 ft 312 kts 311°
2026-05-05 21:22 52.01632 -0.75609 14495 ft 308 kts 313°
2026-05-05 21:22 52.03162 -0.78185 14271 ft 327 kts 313°
2026-05-05 21:23 52.04773 -0.80885 14053 ft 333 kts 313°
2026-05-05 21:23 52.06371 -0.83549 13818 ft 329 kts 313°
2026-05-05 21:23 52.07946 -0.86166 13561 ft 327 kts 313°
2026-05-05 21:23 52.09531 -0.88805 13305 ft 328 kts 314°
2026-05-05 21:24 52.11122 -0.91469 13027 ft 328 kts 314°
2026-05-05 21:24 52.12703 -0.94128 12768 ft 324 kts 313°
2026-05-05 21:24 52.14257 -0.96753 12503 ft 322 kts 313°
2026-05-05 21:24 52.15801 -0.99367 12242 ft 321 kts 313°
2026-05-05 21:25 52.17351 -1.01999 11979 ft 321 kts 313°
2026-05-05 21:25 52.18882 -1.04605 11724 ft 316 kts 313°
2026-05-05 21:25 52.20403 -1.07201 11464 ft 315 kts 314°
2026-05-05 21:25 52.21895 -1.09759 11208 ft 315 kts 313°
2026-05-05 21:26 52.23398 -1.12347 10935 ft 314 kts 313°
2026-05-05 21:26 52.24872 -1.14976 10560 ft 313 kts 308°
2026-05-05 21:26 52.25794 -1.18116 10192 ft 313 kts 287°
2026-05-05 21:26 52.26295 -1.21564 9833 ft 311 kts 283°
2026-05-05 21:27 52.26702 -1.25012 9361 ft 301 kts 282°
2026-05-05 21:27 52.27049 -1.28230 8784 ft 277 kts 281°
2026-05-05 21:27 52.27364 -1.31268 8002 ft 267 kts 281°
2026-05-05 21:27 52.27675 -1.34243 7245 ft 267 kts 281°
2026-05-05 21:28 52.28000 -1.37228 6530 ft 268 kts 281°
2026-05-05 21:28 52.28319 -1.40211 5773 ft 265 kts 281°
2026-05-05 21:28 52.28628 -1.43124 5022 ft 257 kts 282°
2026-05-05 21:28 52.28943 -1.45970 4265 ft 252 kts 283°
2026-05-05 21:29 52.29278 -1.48752 3567 ft 246 kts 283°
2026-05-05 21:29 52.29605 -1.51423 3168 ft 235 kts 283°
2026-05-05 21:29 52.29922 -1.54045 3100 ft 236 kts 284°
2026-05-05 21:29 52.30275 -1.56668 3041 ft 236 kts 290°
2026-05-05 21:30 52.31119 -1.58921 3012 ft 228 kts 320°
2026-05-05 21:30 52.32336 -1.60319 2990 ft 203 kts 334°
2026-05-05 21:30 52.33479 -1.61547 2956 ft 192 kts 329°
2026-05-05 21:30 52.34558 -1.62803 2690 ft 186 kts 331°
2026-05-05 21:31 52.35622 -1.63951 2469 ft 182 kts 332°
2026-05-05 21:31 52.36630 -1.65078 2296 ft 169 kts 332°
2026-05-05 21:31 52.37569 -1.66119 2080 ft 160 kts 333°
2026-05-05 21:31 52.38493 -1.67141 1864 ft 160 kts 332°
2026-05-05 21:32 52.39403 -1.68155 1648 ft 153 kts 332°
2026-05-05 21:32 52.40256 -1.69100 1434 ft 148 kts 332°
2026-05-05 21:32 52.41101 -1.70028 1206 ft 145 kts 331°
2026-05-05 21:32 52.41941 -1.70962 899 ft 149 kts 329°
2026-05-05 21:33 52.42825 -1.71950 715 ft 153 kts 329°
2026-05-05 21:33 52.43681 -1.72907 561 ft 148 kts 331°
2026-05-05 21:33 52.44515 -1.73845 379 ft 141 kts 332°
2026-05-05 21:33 52.45283 -1.74682 323 ft 122 kts 325°
2026-05-05 21:34 52.45891 -1.75365 316 ft 85 kts 325°
2026-05-05 21:34 52.46166 -1.75594 309 ft 16 kts 46°
2026-05-05 21:34 52.46205 -1.75403 301 ft 20 kts 107°
2026-05-05 21:34 52.46096 -1.75261 303 ft 22 kts 147°
2026-05-05 21:35 52.45961 -1.75112 304 ft 25 kts 147°
2026-05-05 21:35 52.45813 -1.74950 309 ft 28 kts 146°
2026-05-05 21:35 52.45652 -1.74767 315 ft 28 kts 144°
2026-05-05 21:35 52.45518 -1.74617 322 ft 23 kts 145°
2026-05-05 21:36 52.45425 -1.74410 322 ft 24 kts 117°
2026-05-05 21:36 52.45348 -1.74162 321 ft 18 kts 118°
2026-05-05 21:36 52.45311 -1.73993 322 ft 14 kts 74°
2026-05-05 21:36 52.45345 -1.73880 322 ft 5 kts 86°
2026-05-05 21:37 52.45325 -1.73834 322 ft 7 kts 139°
2026-05-05 21:37 52.45302 -1.73808 322 ft 2 kts 146°
2026-05-05 21:37 52.45295 -1.73801 322 ft 0 kts 146°